Weather History for Buffalo, WY

Change the Weather History Date:

Tuesday, March 5, 2013

  Actual Average Record
Temperature  
Mean Temperature 21 °F 32 °F  
Max Temperature 35 °F 43 °F 63 °F (2000)
Min Temperature 7 °F 20 °F -2 °F (2003)
Degree Days  
Heating Degree Days 44 34  
Month to date heating degree days 162 171  
Since 1 July heating degree days 5111 5411  
Cooling Degree Days 0 0  
Month to date cooling degree days 0 0  
Year to date cooling degree days 0 0  
Moisture  
Dew Point 9 °F    
Average Humidity 60    
Maximum Humidity 84    
Minimum Humidity 35    
Precipitation  
Precipitation 0.00 in 0.02 in 0.23 in (1999)
Month to date precipitation T 0.10  
Year to date precipitation 0.61 0.87  
Sea Level Pressure  
Sea Level Pressure 30.27 in    
Wind  
Wind Speed 5 mph (SE)    
Max Wind Speed 15 mph    
Max Gust Speed 21 mph    
Visibility 10 miles    
Events      
T = Trace of Precipitation, MM = Missing Value Source: NWS Daily Summary

Daily Weather History Graph

Daily Weather History Graph

Search for Another Location

Airport:

Trip Planner

Search our weather history database for the weather conditions in past years. The results will help you decide how hot, cold, wet, or windy it might be!

Date:

Astronomy

Mar. 05, 2013 Rise Set
Actual Time 6:36 AM MST 6:00 PM MST
Civil Twilight 6:07 AM MST 6:29 PM MST
Nautical Twilight 5:34 AM MST 7:03 PM MST
Astronomical Twilight 5:00 AM MST 7:37 PM MST
Moon 2:01 AM MST (3/5) 11:32 AM MST (3/5)
Length of Visible Light 12h 22m
Length of Day
11h 23m
Last Quarter, 40% of the Moon is Illuminated
Mar 5
Last Quarter
Mar 11
New
Mar 19
First Quarter
Mar 27
Full
Apr 2
Last Quarter

Hourly Weather History & Observations

Time (MST) Temp. Windchill Dew Point Humidity Pressure Visibility Wind Dir Wind Speed Gust Speed Precip Events Conditions
12:53 AM 14.0 °F 6.5 °F 9.0 °F 80% 30.41 in 10.0 mi NNE 4.6 mph - N/A   Overcast
1:53 AM 14.0 °F - 9.0 °F 80% 30.40 in 9.0 mi Calm Calm - N/A   Overcast
2:50 AM 12.2 °F - 8.6 °F 85% 30.22 in 7.0 mi Calm Calm - N/A   Overcast
2:53 AM 12.9 °F 6.9 °F 8.1 °F 81% 30.39 in 7.0 mi SSE 3.5 mph - N/A   Overcast
3:03 AM 12.2 °F 2.9 °F 6.8 °F 79% 30.20 in 10.0 mi South 5.8 mph - N/A   Mostly Cloudy
3:53 AM 10.9 °F 1.4 °F 3.9 °F 73% 30.39 in 10.0 mi SSE 5.8 mph - N/A   Clear
4:53 AM 10.9 °F -0.8 °F 6.1 °F 81% 30.39 in 10.0 mi SSE 8.1 mph - N/A   Clear
5:53 AM 8.1 °F - 1.0 °F 73% 30.40 in 10.0 mi Calm Calm - N/A   Clear
6:53 AM 9.0 °F - 1.9 °F 73% 30.39 in 10.0 mi Calm Calm - N/A   Clear
7:53 AM 15.1 °F - 5.0 °F 64% 30.38 in 10.0 mi Calm Calm - N/A   Clear
8:53 AM 18.0 °F 11.1 °F 7.0 °F 62% 30.38 in 10.0 mi SSE 4.6 mph - N/A   Clear
9:53 AM 24.1 °F 17.0 °F 10.9 °F 57% 30.35 in 10.0 mi ESE 5.8 mph - N/A   Clear
10:53 AM 28.0 °F 19.3 °F 12.0 °F 51% 30.32 in 10.0 mi SE 9.2 mph - N/A   Clear
11:53 AM 30.9 °F 21.2 °F 10.9 °F 43% 30.28 in 10.0 mi SSE 12.7 mph - N/A   Clear
12:53 PM 32.0 °F 22.5 °F 10.0 °F 40% 30.25 in 10.0 mi SE 12.7 mph 19.6 mph N/A   Clear
1:53 PM 32.0 °F 23.6 °F 10.0 °F 40% 30.22 in 10.0 mi ESE 10.4 mph - N/A   Clear
2:53 PM 34.0 °F 26.6 °F 10.0 °F 37% 30.20 in 10.0 mi ESE 9.2 mph - N/A   Clear
3:53 PM 34.0 °F 27.2 °F 9.0 °F 35% 30.20 in 10.0 mi East 8.1 mph - N/A   Clear
4:53 PM 34.0 °F 28.0 °F 9.0 °F 35% 30.18 in 10.0 mi ESE 6.9 mph - N/A   Clear
5:53 PM 30.9 °F 27.5 °F 10.0 °F 42% 30.19 in 10.0 mi ESE 3.5 mph - N/A   Clear
6:53 PM 30.0 °F - 10.0 °F 43% 30.19 in 10.0 mi Calm Calm - N/A   Clear
7:53 PM 28.9 °F - 10.0 °F 45% 30.17 in 10.0 mi Calm Calm - N/A   Clear
8:53 PM 24.1 °F 19.7 °F 12.9 °F 62% 30.16 in 10.0 mi NNW 3.5 mph - N/A   Clear
9:53 PM 23.0 °F 17.0 °F 12.9 °F 65% 30.13 in 10.0 mi NNW 4.6 mph - N/A   Clear
10:53 PM 23.0 °F 18.4 °F 12.0 °F 63% 30.10 in 10.0 mi West 3.5 mph - N/A   Clear
11:53 PM 21.0 °F 14.6 °F 12.0 °F 68% 30.09 in 10.0 mi WNW 4.6 mph - N/A   Clear